Regional Weather Roundup
Issued by NWS

Home | Current Version | Previous Version | Graphics & Text | Print | Product List | Glossary On
Versions: 1 2 3 4 5 6 7 8 9 10 11 12 13 14 15 16 17 18 19 20 21 22 23 24 25 26 27 28 29 30 31 32 33 34 35 36 37 38 39 40 41 42 43 44 45 46 47 48 49 50
000
ASUS43 KIND 292259
RWRIN

WEATHER ROUNDUP FOR INDIANA
NATIONAL WEATHER SERVICE INDIANAPOLIS IN
700 PM EDT MON JUN 29 2015

NOTE: "FAIR" INDICATES FEW OR NO CLOUDS BELOW 12,000 FEET WITH NO
SIGNIFICANT WEATHER AND/OR OBSTRUCTIONS TO VISIBILITY.

* - STATION DOES NOT REPORT WEATHER SUCH AS PRECIPITATION OR FOG.

+ - STATION NOT QUALITY CONTROLLED BY THE NATIONAL WEATHER SERVICE.
    USE DATA WITH CAUTION...ESPECIALLY DEWPOINT AND RELATIVE
    HUMIDITY OBSERVATIONS.

INZ001>003-010>013-019-020-300000-
NORTHWEST INDIANA

CITY           SKY/WX    TMP DP  RH WIND       PRES   REMARKS
GARY /AIRPORT/ CLOUDY    72  68  88 CALM      29.80S
RENSSELAER +   CLOUDY    72  66  83 CALM      29.81S

$$

LMZ046-743>745-300000-
SOUTHERN LAKE MICHIGAN

STATION/POSITION TIME  TEMP    WIND        PRES    WAVE
                       AIR SEA DIR/SP/G            HT
                 (UTC) (F)     (DEG/KT/KT) (MB)    (FT)
BURNS HARBOR     2200   69      60/  7/  8 1009.8S
MICHIGAN CITY    2200   68     330/  8/  9   N/A
5NW MICH CITY    2200   67 67  360/  4/  6   N/A     0

$$

INZ004-005-014>016-021>024-300000-
NORTH CENTRAL INDIANA

CITY           SKY/WX    TMP DP  RH WIND       PRES   REMARKS
ELKHART        CLOUDY    66  59  77 E6        29.83S
GOSHEN         CLOUDY    65  59  81 SE7       29.82F
SOUTH BEND     MOSUNNY   70  61  73 E10       29.81F

$$

INZ006>009-017-018-025>027-300000-
NORTHEAST INDIANA

CITY           SKY/WX    TMP DP  RH WIND       PRES   REMARKS
ANGOLA *+      CLOUDY    63  52  67 SE7       29.84S
FORT WAYNE     CLOUDY    64  60  87 NE8       29.82F

$$

INZ028-029-035-036-043>045-051>053-300000-
WEST CENTRAL INDIANA

CITY           SKY/WX    TMP DP  RH WIND       PRES   REMARKS
CRAWFORDSVL +  MOSUNNY   73  61  66 W3        29.81R
GREENCASTLE +  PTSUNNY   72  63  73 CALM      29.81S
LAFAYETTE      PTSUNNY   73  64  73 CALM      29.79R
TERRE HAUTE    PTSUNNY   78  65  63 W9        29.80R

$$

INZ030>032-037>040-046>048-054>057-064-065-300000-
CENTRAL INDIANA

CITY           SKY/WX    TMP DP  RH WIND       PRES   REMARKS
COLUMBUS       MOSUNNY   75  66  73 NW7       29.79
GREENWOOD *+   PTSUNNY   73  61  64 W6        29.80S
INDIANAPOLIS   PTSUNNY   74  63  68 W9        29.79R
-EAGLE CREEK   MOSUNNY   74  64  71 W9        29.79S
KOKOMO *+      PTSUNNY   70  63  78 CALM      29.80R
MT COMFORT *+  MOSUNNY   72  61  68 CALM      29.80F
SHELBYVILLE    PTSUNNY   77  64  64 W8        29.78S

$$

INZ033-034-041-042-049-050-058-059-300000-
EAST CENTRAL INDIANA

CITY           SKY/WX    TMP DP  RH WIND       PRES   REMARKS
MUNCIE         PTSUNNY   71  62  73 NE6       29.80S

$$

INZ060-061-067>069-081>083-085>088-300000-
SOUTHWEST INDIANA

CITY           SKY/WX    TMP DP  RH WIND       PRES   REMARKS
EVANSVILLE     SUNNY     81  63  54 W10       29.83S
HUNTINGBURG *+ MOSUNNY   79  63  57 W14       29.82S

$$

INZ062-063-066-070>080-084-089>092-300000-
SOUTH CENTRAL AND SOUTHEAST INDIANA

CITY           SKY/WX    TMP DP  RH WIND       PRES   REMARKS
BLOOMINGTON    SUNNY     77  66  68 W9        29.80F
MADISON *+     MOSUNNY   77  61  57 W8        29.82R
SEYMOUR +      PTSUNNY   79  64  61 W13       29.79R

$$




USA.gov is the U.S. government's official web portal to all federal, state and local government web resources and services.